STARLINK-32413, 61590

Orbit data source: Space-Track

STARLINK-32413, 61590 is a payload satellite owned by SpaceX/Seattle (US) in LEO that was launched on Fri, 18 Oct 2024 UTC via an FALCON 9 launch vehicle from the Air Force Eastern Test Range (AFETR). Payload-class satellites include a variety of spacecraft equipped with specific instruments for various scientific and technological missions. These include communications satellites like Starlink; space stations such as the ISS; scientific satellites like the Hubble; Earth observation satellites from companies like Planet Labs, Umbra, and HawkEye 360; GPS; miniature CubeSats for education and research; and military/defense satellites.

Loading next visibility...
Identifier
61590, 2024-187S
Orbit
LEO
Country
Flag of USUS
Related business
Manufacturer
SpaceX/Seattle
Mission
Operational Commercial Communications
Bus & Motor
STARLINK V2M, Unknown motor
Mass
730 kg wet, ~700 kg dry
Launch date (UTC)
2024-10-18 (2 years ago)
Launch vehicle
FALCON 9
Launch site
Air Force Eastern Test Range (AFETR)
Object type
Payload
Rocket body
Debris
Shape & HBR
Box + 2 Pan, 17.7 m
Radar Cross Section
33.884 m², Large (>1 m²)

Expand to show TLE details & history
Last TLE update: 11 hours ago

TLE from 11 hours ago
0 STARLINK-32413
1 61590U 24187S   26171.37196524 -.00000974  00000-0 -17716-4 0  9995
2 61590  53.1609 306.7430 0001081  69.7538 290.3581 15.34390384 94829
Epoch: 2026-06-20T08:55Z
TLE epoch observation values (Epoch: 2026-06-20T08:55:37.796Z)
Latitude
-0.00002°
Longitude
-95.75203°
Altitude
463.376 km
Speed
7.636 km/s
True Right ascension
20h 26m 58s
True Declination
0° 00' 00"
Sunlit
Object was in full shadow at epoch
Visualization orbit readout
Latitude
Unknown
Longitude
Unknown
Altitude
Unknown
Speed
Unknown
Apparent Right ascension
Unknown
Apparent Declination
Unknown
Sunlit
N/A
Visualization observer readout
Local Sidereal Time
07:16:57
Azimuth
Unknown
Elevation
Unknown
Doppler factor
Unknown
Orbital elements
Apogee altitude
463.728 km
Perigee altitude
462.249 km
Semi-major axis
6,841.126 km
Eccentricity
0.00011
Inclination
53.1609°
RAAN
306.743°
Arg. of periapsis
69.7538°
True anomaly
290.34649°
Mean anomaly
290.3581°
Eccentric anomaly
290.35229°
Mean motion
3.83576 °/min
Orbital period
93.85 mins
BSTAR
-0.000017716
Loading maneuver chart data...
Computing Atmospheric mass density...
Loading historical data...
Loading historical data...
Loading historical data...
Loading historical data...
Loading historical data...
Loading historical data...
Loading historical data...

Documentation

Showing up to 5 results
|